Theta_e
316 316 316 316 316 317 316 316 316 316 316 316 315 315 315 314 314 314 314 314 313 313 313 313 313 313 313 313 313 313 313 313 313 313 313 312 312 314 316 316 316 316
316 316 316 316 317 317 316 316 316 316 316 316 316 315 315 315 315 314 314 314 314 313 313 313 313 313 313 312 312 312 312 312 312 312 311 311 312 312 313 313 313 313
316 316 316 316 316 316 316 316 316 317 317 317 316 316 316 316 315 315 315 315 314 314 314 314 313 313 313 313 312 312 312 312 311 311 311 311 311 311 310 310 310 310
316 316 316 316 316 316 316 316 316 317 317 317 317 316 316 316 316 316 315 315 315 315 314 314 314 313 313 313 312 312 312 312 311 311 311 311 310 310 309 308 308 308
317 316 316 316 316 316 316 316 316 317 317 317 317 316 316 316 316 316 315 315 315 314 314 314 314 314 313 313 313 313 312 312 312 311 311 311 310 310 309 308 308 308
316 317 316 316 316 316 317 316 316 316 316 316 316 316 316 316 315 315 315 315 314 314 314 314 314 313 313 313 313 313 313 313 312 312 312 312 311 311 309 308 307 308
317 317 317 317 317 317 317 317 316 316 316 316 316 316 316 315 315 315 315 315 314 314 314 313 313 313 313 313 313 313 313 313 313 312 312 312 312 312 311 309 308 308
317 317 317 317 317 317 317 317 316 316 316 316 316 316 316 316 315 316 315 315 314 314 313 313 313 313 313 313 313 313 313 313 313 312 312 312 312 312 312 310 309 308
317 317 317 317 317 317 316 316 316 316 316 316 316 316 316 316 315 315 315 315 314 314 313 313 313 313 313 313 313 313 313 312 312 312 312 312 312 312 311 310 308 308
316 316 316 316 316 316 316 316 316 316 316 316 316 316 316 315 315 315 314 314 314 314 313 313 313 312 312 312 312 312 312 312 312 312 312 312 311 311 311 310 309 308
316 316 316 315 315 316 316 315 316 316 315 315 316 315 315 315 315 314 314 314 314 314 313 312 312 312 312 312 312 312 312 312 312 312 311 311 311 311 310 310 309 308
316 315 315 315 315 315 315 315 315 315 315 315 315 315 315 314 314 314 314 314 314 313 313 312 312 312 312 312 312 312 312 311 311 311 311 310 310 310 310 309 309 308
315 315 315 315 315 315 315 315 315 315 315 315 314 314 314 314 314 314 314 314 313 313 313 313 312 312 312 312 312 311 311 311 311 311 311 310 310 310 310 309 309 309
315 315 315 315 315 315 315 314 314 314 314 313 313 313 313 313 313 313 312 312 312 312 312 312 312 312 311 311 311 311 311 311 311 310 310 310 310 310 309 309 309 309
315 314 314 315 314 314 314 313 313 313 312 312 312 312 311 311 312 311 311 311 311 311 311 311 311 311 311 310 310 310 310 310 310 310 310 310 310 309 309 309 309 309
314 314 314 313 313 312 312 312 312 311 311 311 311 310 310 310 310 310 310 310 310 310 310 310 310 310 310 310 310 310 310 309 309 309 309 309 309 309 309 309 309 309
312 312 312 312 312 312 311 311 311 310 310 309 308 308 308 308 308 308 308 308 308 308 308 308 308 308 309 309 309 309 309 309 309 309 309 309 309 309 309 309 309 309
311 311 311 311 311 311 310 309 309 308 307 307 307 306 306 306 306 306 306 306 306 306 306 306 306 307 308 308 308 308 309 309 309 309 309 309 309 309 309 309 309 309
311 310 310 310 309 309 308 307 307 307 306 306 306 306 306 306 306 306 305 306 306 306 306 306 306 306 307 307 307 308 308 308 308 308 308 308 308 308 309 308 308 308
310 309 309 308 307 307 307 306 306 306 306 306 305 305 305 305 305 305 304 305 305 305 305 305 305 306 306 306 307 307 307 308 308 308 308 308 308 308 308 308 308 308
309 308 308 307 306 306 306 306 305 305 304 304 304 304 304 303 303 303 303 303 303 303 304 303 304 304 305 306 306 306 307 307 307 307 307 307 308 308 308 307 307 307
307 307 306 305 305 304 304 304 303 303 303 302 302 302 302 302 302 302 302 302 302 302 302 302 302 302 303 304 305 306 306 306 307 307 307 307 307 307 307 307 306 306
305 304 303 303 302 302 302 302 302 302 302 302 302 303 303 303 303 303 302 302 302 302 302 302 302 301 302 302 303 304 305 305 305 306 306 306 306 306 306 306 306 305
302 302 302 302 302 302 302 303 303 303 303 303 303 303 303 303 303 303 302 302 302 302 302 302 302 301 301 301 302 303 303 304 304 304 304 305 305 305 305 305 305 305
301 301 302 302 302 303 303 303 303 303 303 303 303 302 302 302 301 301 301 301 301 301 301 301 301 301 301 301 302 302 303 303 303 304 304 304 304 305 305 305 305 304
301 301 301 301 301 301 301 301 301 301 301 301 301 300 300 300 300 300 300 300 300 300 300 300 300 300 301 301 302 302 303 303 303 303 304 304 304 304 304 304 304 304
Wind_Speed
13 13 13 12 12 12 12 12 12 13 13 14 15 15 15 15 15 16 18 19 21 23 24 25 27 28 29 30 32 33 35 37 38 38 38 39 39 38 39 40 40 42
12 12 12 12 12 12 12 12 13 14 15 15 15 15 15 15 16 17 18 18 19 21 22 23 24 25 27 28 29 31 32 34 35 36 36 37 38 39 41 42 42 42
12 12 12 12 12 12 12 13 15 16 16 17 17 17 17 18 18 19 19 19 20 21 22 22 23 24 25 26 27 28 29 31 33 33 34 35 37 39 40 41 42 42
12 13 13 13 12 12 12 14 15 17 18 19 19 20 20 21 21 21 21 21 21 22 23 23 24 24 25 25 25 25 27 28 30 31 33 33 34 35 36 38 39 40
12 13 13 13 13 13 14 15 16 17 19 20 22 22 23 23 23 23 23 23 23 24 24 25 25 25 25 25 24 25 26 27 28 29 30 30 30 31 32 34 37 39
12 13 13 13 14 15 16 17 18 19 20 22 23 25 25 25 26 26 26 25 25 25 26 26 26 26 25 25 24 25 26 26 27 27 28 28 27 27 28 29 31 33
13 14 14 15 16 17 18 19 19 21 22 24 25 26 27 27 28 28 29 29 29 28 28 27 27 26 26 25 25 25 25 26 26 27 28 28 27 27 26 25 26 26
15 15 16 17 18 19 20 20 21 22 24 26 27 27 28 28 29 29 30 31 31 31 30 29 27 27 26 26 26 25 25 25 26 26 27 28 28 28 27 25 25 25
16 16 17 19 20 21 21 22 23 25 27 28 29 30 30 30 30 30 30 31 31 31 31 30 29 27 26 27 27 26 25 24 25 26 28 29 29 29 28 26 26 27
17 18 19 21 22 23 24 25 27 28 29 31 31 31 31 31 30 30 30 29 28 29 30 30 29 28 27 27 27 26 26 25 25 27 29 30 30 30 29 28 28 28
19 20 22 23 25 26 28 29 30 31 31 32 32 32 31 30 29 28 27 26 26 26 27 28 28 28 28 27 27 27 28 27 28 29 30 31 31 30 29 29 29 30
22 23 24 25 26 27 29 30 30 30 30 31 30 29 27 25 24 23 22 22 22 22 23 24 25 27 28 28 29 29 29 29 30 30 31 31 32 31 30 30 30 31
25 25 25 25 25 26 27 27 28 28 27 26 25 23 22 20 19 19 19 19 18 18 19 20 21 23 25 26 27 28 29 29 29 30 31 31 32 32 31 31 31 31
24 23 22 22 22 23 23 23 23 22 20 19 18 16 16 15 15 15 15 15 15 16 16 17 19 20 22 23 24 25 26 28 28 29 30 30 31 31 32 32 32 32
20 20 19 19 19 19 18 17 15 14 13 12 12 12 12 13 13 14 14 15 15 16 17 18 19 20 20 21 22 24 25 27 28 28 28 29 30 30 31 31 32 33
16 16 16 15 14 13 12 11 10 10 11 11 12 13 13 14 14 15 16 16 17 18 19 20 21 21 21 22 23 25 26 27 29 29 29 30 31 32 32 32 32 33
11 11 10 10 9 9 9 10 11 12 13 13 14 14 15 15 16 17 18 18 19 20 21 22 23 24 24 24 25 26 27 29 30 31 32 32 33 34 34 34 34 35
8 8 8 8 8 9 10 11 12 13 14 14 14 15 16 16 17 18 19 20 21 22 22 23 24 25 25 25 26 27 29 30 32 33 34 34 35 35 36 36 36 37
8 8 8 8 9 10 11 12 13 14 14 15 15 16 17 17 18 19 19 20 22 22 23 23 23 24 24 25 26 27 28 30 32 33 34 35 35 36 36 37 37 38
8 9 9 10 11 11 12 13 14 14 15 16 16 16 17 18 19 20 20 22 23 24 24 24 24 24 24 25 26 27 28 30 32 33 34 34 35 35 36 37 37 38
9 10 11 12 12 13 13 14 14 15 16 16 16 17 18 19 20 22 22 23 25 26 27 27 25 25 26 26 26 27 28 30 32 33 34 34 34 35 36 36 37 37
10 11 12 13 13 13 13 14 15 15 17 18 18 18 20 21 22 24 25 26 27 28 29 29 27 27 28 28 28 28 30 31 33 33 34 35 35 35 35 36 36 36
11 11 11 12 13 13 14 15 16 17 19 20 22 22 23 25 26 28 28 29 30 31 32 33 32 30 31 32 32 32 32 33 34 35 36 36 36 36 36 36 36 36
10 11 12 14 15 17 18 19 20 21 23 25 26 28 28 29 31 32 32 33 34 35 36 37 37 36 36 36 36 36 36 36 37 38 39 39 38 37 37 37 37 37
13 15 17 18 20 21 23 24 25 27 28 30 31 32 33 33 34 35 35 35 36 37 39 40 40 40 39 39 39 38 37 38 38 39 40 40 39 39 39 39 39 39
18 19 21 23 24 26 27 29 30 31 32 33 34 35 36 37 37 37 38 38 38 39 40 41 42 42 41 40 40 39 38 38 38 39 40 40 40 40 40 41 41 40
Wind_Direction
220 226 232 237 243 248 251 255 259 263 265 267 270 273 275 276 275 274 273 273 272 273 273 273 274 274 274 273 273 273 273 273 273 272 270 269 269 268 268 268 268 268
224 230 236 242 249 254 258 261 263 264 265 267 270 273 276 277 276 276 276 277 278 279 279 279 280 280 279 279 279 279 278 277 276 274 272 272 270 269 268 268 267 267
228 234 238 244 251 255 260 267 272 277 280 280 280 280 279 277 276 276 277 277 278 279 279 278 279 279 280 281 282 283 284 283 281 278 275 275 273 272 271 270 269 268
232 237 241 246 251 255 260 268 277 284 286 286 285 282 279 277 276 275 273 273 274 274 274 273 275 276 277 280 282 284 287 286 285 281 278 278 276 275 275 273 271 270
240 245 249 254 258 261 266 270 275 279 281 282 283 281 279 277 276 274 271 270 269 269 269 268 269 271 273 277 280 284 286 287 287 285 282 281 280 278 278 275 273 272
249 254 257 262 266 268 271 273 275 276 277 279 279 278 278 277 276 275 273 270 268 266 266 266 267 268 270 273 277 281 285 287 289 289 288 287 285 282 279 276 274 273
255 260 264 267 269 269 271 273 275 277 278 278 278 278 278 277 276 275 274 272 269 267 266 266 268 269 270 272 274 278 282 285 289 291 292 293 292 289 285 280 279 278
256 261 265 266 268 269 271 275 277 278 279 279 278 277 277 276 276 276 276 274 272 270 269 269 270 271 273 274 274 276 278 282 286 290 293 294 294 294 292 287 283 281
256 261 264 266 268 270 273 275 277 277 278 278 278 278 277 276 276 276 277 278 278 277 274 272 271 272 273 274 274 275 277 280 285 288 291 293 293 294 293 289 284 281
257 261 263 266 268 270 271 272 273 274 275 276 277 277 277 276 277 278 281 284 285 282 278 274 272 271 271 273 275 278 280 282 285 286 287 288 289 290 290 288 283 281
257 259 261 265 267 268 269 269 271 273 273 274 275 276 278 279 281 284 286 288 286 283 280 277 274 272 273 275 277 280 282 283 284 284 285 285 286 287 286 286 284 282
260 259 261 265 266 267 270 271 273 273 273 274 275 278 281 283 285 287 286 286 285 284 283 282 279 277 276 276 278 280 281 283 284 284 285 285 285 285 284 283 283 282
264 265 266 268 270 271 273 274 274 274 275 276 279 282 284 285 286 286 285 286 287 288 288 287 284 282 281 282 283 285 286 287 287 287 287 287 286 285 284 282 281 281
268 270 272 274 275 275 275 274 274 274 276 278 280 282 284 286 287 288 290 292 294 294 293 292 291 290 291 292 292 293 292 291 291 290 289 289 288 287 285 283 283 282
268 270 273 274 274 273 271 270 270 271 274 277 280 284 287 290 293 294 297 298 298 299 298 298 299 299 301 302 300 298 297 295 295 294 293 292 291 290 288 287 287 286
263 264 265 263 262 262 261 263 268 274 280 284 288 292 294 296 298 299 301 301 301 302 302 302 303 303 305 305 303 301 299 298 297 297 296 295 294 294 294 293 292 291
254 251 248 246 248 255 263 273 281 286 290 293 295 298 300 302 304 304 306 307 306 306 306 305 305 305 306 305 303 301 300 298 298 298 297 297 296 296 296 296 295 293
236 235 239 247 257 270 278 283 289 291 294 297 299 302 304 306 308 309 310 310 309 308 308 307 307 306 304 302 300 299 298 297 297 297 297 296 296 297 297 296 295 294
237 245 258 267 274 281 285 289 293 296 299 302 305 307 309 310 312 312 312 311 310 309 308 308 308 306 303 300 298 296 295 295 294 295 295 295 295 295 295 294 293 292
257 266 274 281 285 289 293 296 300 302 304 307 309 311 311 313 313 312 312 311 309 308 307 307 308 305 301 299 297 294 293 291 291 291 292 292 292 292 291 290 289 288
273 280 285 290 294 297 300 303 305 307 308 309 311 313 313 313 313 312 311 310 308 306 305 305 305 303 300 298 295 293 291 289 288 288 289 289 289 289 289 288 287 286
285 290 294 297 300 303 306 309 310 312 312 312 313 314 313 312 311 310 309 307 305 304 303 302 303 301 299 297 295 293 291 289 289 289 288 289 289 289 288 287 287 286
297 300 303 306 309 311 312 313 313 313 312 311 310 310 309 308 306 305 305 304 302 302 301 300 300 300 299 298 296 295 293 292 292 291 291 291 292 292 290 290 289 288
309 311 312 312 313 312 311 311 309 308 307 306 305 304 304 303 303 302 301 300 300 300 299 299 298 298 298 297 296 296 295 295 294 294 293 294 295 295 293 292 292 290
313 313 312 311 311 310 309 308 306 305 304 303 303 303 302 301 301 300 299 299 298 298 298 298 298 298 298 297 296 296 296 296 295 295 295 296 297 297 296 295 294 293
313 312 312 311 310 309 308 307 306 305 304 303 302 302 301 301 301 300 299 298 298 298 298 298 298 298 298 298 298 298 298 297 296 296 297 299 299 298 297 296 296 296